#timestamp,LO_Frequency,Hit,StdDev 
1562608815.3,286047001.6,N
1562608835.2,286047002.0,N
1562608855.9,286047004.3,N
1562608875.7,286047004.2,N
1562608895.6,286047003.9,N
1562608915.4,286047004.3,N
1562608935.3,286047003.9,N
1562608955.1,286047003.9,N
1562608956.0,286047003.9,N
1562608975.8,286047001.3,N
1562608995.7,286047003.8,N
1562609015.5,286047001.3,N
1562609035.3,286047002.4,N
1562609055.2,286047002.2,N
1562609075.0,286047000.4,N
1562609075.9,286047000.4,N
1562609095.8,286047002.3,N
1562609115.6,286047002.5,N
1562609135.4,286047001.6,N
1562609155.3,286047001.3,N
1562609175.1,286047002.5,N
1562609195.9,286047001.8,N
1562609215.7,286047002.0,N
1562609235.5,286047001.6,N
1562609255.4,286047000.2,N
1562609275.2,286047000.0,N
1562609295.0,286046999.7,N
1562609296.0,286046999.7,N
1562609315.8,286047000.1,N
1562609335.6,286047002.8,N
1562609355.5,286047000.7,N
1562609375.3,286046998.9,N
1562609395.2,286046999.1,N
1562609415.0,286046999.0,N
1562609415.9,286046999.0,N
1562609435.7,286046999.3,N
1562609455.6,286046998.4,N
1562609475.4,286047000.6,N
1562609495.3,286047000.5,N
1562609515.1,286046998.6,N
1562609516.0,286046998.6,N
1562609535.8,286046999.3,N
1562609555.7,286046998.5,N
1562609575.5,286046999.2,N
1562609595.4,286046999.2,N
1562609615.2,286046998.9,N
1562609635.0,286046996.7,N
1562609635.9,286046996.7,N
1562609655.8,286046997.2,N
1562609675.6,286046996.5,N
1562609695.4,286046999.5,N
1562609715.3,286046999.3,N
1562609735.1,286046997.5,N
1562609755.9,286046999.6,N
1562609775.7,286046997.7,N
1562609795.5,286046997.5,N
1562609815.4,286046997.6,N
1562609835.2,286046997.5,N
1562609855.0,286046997.1,N
1562609856.0,286046997.1,N
1562609875.8,286046997.3,N
1562609895.6,286046997.1,N
1562609915.5,286046997.4,N
1562609935.3,286046997.2,N
1562609955.1,286046999.5,N
1562609975.9,286046999.3,N
1562609995.7,286046999.2,N
1562610015.6,286046999.4,N
1562610035.4,286046996.5,Y
1562610055.2,286047000.8,P
1562610075.1,286047001.1,N
1562610076.0,286047001.1,N
1562610095.8,286047000.9,N
1562610115.7,286046999.9,N
1562610135.5,286046999.9,N
1562610155.3,286047000.4,N
1562610175.2,286047002.8,Y
1562610195.0,286047002.2,P
1562610195.9,286047002.2,N
1562610215.8,286047004.3,P
1562610235.6,286047004.4,Y
1562610255.4,286047000.7,P
1562610275.3,286047000.8,N
1562610295.1,286047000.7,N
1562610315.8,286047001.0,N
1562610335.7,286047000.4,N
1562610355.5,286047002.8,Y
1562610375.4,286047000.0,P
1562610395.2,286047000.4,N
1562610415.0,286046999.7,N
1562610415.9,286046999.7,N
1562610435.8,286047001.6,Y
1562610455.6,286047000.2,P
1562610475.5,286047001.9,P
1562610495.3,286047002.6,P
1562610515.1,286047002.6,N
1562610535.9,286047000.2,N
1562610555.7,286047000.1,N
1562610575.6,286047000.7,N
1562610595.4,286047000.4,N
1562610615.2,286047002.7,N
1562610635.1,286047000.9,N
1562610636.0,286047000.9,N
1562610655.8,286047000.2,N
1562610675.7,286047000.2,N
1562610695.5,286047000.1,N
1562610715.3,286046999.8,N
1562610735.2,286047002.6,N
1562610755.0,286047001.5,N
1562610755.9,286047001.5,N
1562610775.8,286047002.5,N
1562610795.6,286047002.8,N
1562610815.4,286047002.8,N
1562610835.3,286047002.8,N
1562610855.1,286047002.6,N
1562610875.8,286047003.5,Y
1562610895.7,286047000.1,P
1562610915.5,286047002.1,P
1562610935.4,286047001.9,N
1562610955.2,286047002.2,N
1562610975.0,286047002.2,N
1562610975.9,286047002.2,N
1562610995.8,286047001.8,N
1562611015.6,286047003.9,Y
1562611035.5,286047002.3,P
1562611055.3,286047000.3,N
1562611075.1,286047001.0,N
1562611095.9,286047000.9,N
1562611115.7,286047000.5,N
1562611135.6,286047000.0,N
1562611155.4,286047000.5,N
1562611175.2,286047000.2,N
1562611195.1,286047002.7,Y
1562611196.0,286047002.7,P
1562611215.8,286047000.0,N
1562611235.7,286046999.7,N
1562611255.5,286047000.4,N
1562611275.3,286046999.9,N
1562611295.2,286047000.4,N
1562611315.9,286047000.5,N
1562611335.7,286047002.8,Y
1562611355.6,286047001.4,P
1562611375.4,286047000.6,N
1562611395.3,286047001.1,N
1562611415.1,286047001.2,Y
1562611435.8,286046998.3,P
1562611455.7,286047001.2,N
1562611475.5,286047002.6,N
1562611495.4,286047002.7,N
1562611515.2,286047002.2,N
1562611535.0,286047002.0,N
1562611535.9,286047002.0,N
1562611555.8,286047002.5,N
1562611575.6,286047002.7,N
1562611595.5,286047002.4,N
1562611615.3,286047001.9,N
1562611635.1,286047001.3,N
1562611655.9,286047000.1,N
1562611675.7,286047002.6,N
1562611695.5,286047002.0,N
1562611715.4,286047001.5,N
1562611735.2,286047002.1,N
1562611755.1,286047004.4,Y
1562611756.0,286047004.4,P
1562611775.8,286047002.4,N
1562611795.6,286047000.1,N
1562611815.5,286047000.3,N
1562611835.3,286047002.0,N
1562611855.2,286047002.0,N
1562611875.9,286047002.8,N
1562611895.7,286047002.8,N
1562611915.6,286047001.5,N
1562611935.4,286047004.2,Y
1562611955.2,286047001.8,P
1562611975.1,286047000.5,P
1562611976.0,286047000.5,N
1562611995.8,286047000.3,N
1562612015.7,286047000.8,N
1562612035.5,286047000.7,N
1562612055.3,286047000.5,N
1562612075.2,286047000.9,N
1562612095.0,286046998.6,N
1562612095.9,286046998.6,N
1562612115.8,286046998.5,N
1562612135.6,286046999.4,N
1562612155.4,286046997.3,N
1562612175.3,286046996.8,N
1562612195.1,286046999.2,N
1562612215.9,286046996.5,N
1562612235.7,286046998.9,N
1562612255.5,286046999.4,N
1562612275.4,286046998.9,N
1562612295.2,286046998.8,N
1562612315.0,286046996.8,N
1562612315.9,286046996.8,N
1562612335.8,286046997.2,N
1562612355.6,286046996.8,N
1562612375.5,286046999.3,N
1562612395.3,286046998.7,N
